Old Res Weather

Lexington, Massachusetts, USA

41°F
12/3/2020 11:15pm 
  • Lexington Conditions: Clear
  • Temperature: 40.6°F / 4.8°CColder 0.4°F than last hour.
  • Dew Point: 28.6°FDecreased 0.7°Fsince last hour.
  • Relative Humidity: 62%Decreased 1.0% since last hour.
  • Wind: Calm, 10-min avg: Calm, gust: 1 mph
  • Barometer: 30.12 in Steady
  • Visibility: 10 miles
  • Rain Today: 0.00 in
  • UV Index: $VPuv None
  •   

Regional Weather Roundup
for Boston / Norton, MA

        
000
ASUS41 KBOX 040404
RWRBOX

REGIONAL WEATHER ROUNDUP
NATIONAL WEATHER SERVICE BOSTON/NORTON MA
1100 PM EST THU DEC 03 2020

NOTE:  "FAIR" INDICATES FEW OR NO CLOUDS BELOW 12,000 FEET WITH NO 
SIGNIFICANT WEATHER AND/OR OBSTRUCTIONS TO VISIBILITY.

MAZALL-040500-
EASTERN MASSACHUSETTS
  
CITY           SKY/WX    TMP DP  RH WIND       PRES   REMARKS
BOSTON         CLOUDY    43  26  51 SW14      30.10                   
BEVERLY        CLOUDY    43  26  51 SW8       30.08S                  
LAWRENCE       MOCLDY    42  25  50 S6        30.09S                  
BEDFORD        MOCLDY    42  24  49 S9        30.08R                  
BLUE HILL        N/A     40  27  59 S13       30.08R                  
NORWOOD        MOCLDY    44  28  53 SW5       30.11R                  
MARSHFIELD     CLOUDY    45  32  61 SW8G15    30.11R                  
PLYMOUTH       MOCLDY    43  30  60 SW8       30.12S                  
TAUNTON        MOCLDY    47  31  53 SW7       30.12S                  
NEW BEDFORD    MOCLDY    47  30  51 SW7       30.12F                  
$$

MAZALL-040500-
CAPE COD AND THE ISLANDS
  
CITY           SKY/WX    TMP DP  RH WIND       PRES   REMARKS
FALMOUTH       CLEAR     46  32  57 SW9       30.15S                  
HYANNIS        CLOUDY    47  35  63 SW12      30.12F                  
CHATHAM        CLOUDY    48  38  68 SW7       30.14F                  
PROVINCETOWN   CLOUDY    46  34  62 SW18      30.11F                  
NANTUCKET      CLOUDY    50  40  68 W12       30.15F                  
MARTHAS VNYRD  MOCLDY    48  33  56 SW7       30.15F                  
$$
 
MAZALL-040500-
CENTRAL AND WESTERN MASSACHUSETTS
  
CITY           SKY/WX    TMP DP  RH WIND       PRES   REMARKS
WORCESTER      PTCLDY    37  20  50 SW6       30.06S                  
FITCHBURG      PTCLDY    44  19  36 SW3       30.07F                  
ORANGE         MOCLDY    31  27  85 CALM      30.06F                  
SPRINGFIELD    CLOUDY    41  22  47 S7        30.07S                  
WESTFIELD      CLOUDY    42  23  46 S7        30.07S                  
NORTH ADAMS    PTCLDY    31  23  72 NE3       30.06R                  
PITTSFIELD     MOCLDY    41  17  38 SW8       30.03R                  
$$
 
RIZALL-040500-
RHODE ISLAND
  
CITY           SKY/WX    TMP DP  RH WIND       PRES   REMARKS
PROVIDENCE     CLOUDY    43  31  62 S7        30.13S                  
NEWPORT        MOCLDY    47  30  51 SW8       30.13S                  
BLOCK ISLAND   MOCLDY    47  33  58 W10       30.16S                  
SMITHFIELD     MOCLDY    41  29  62 VRB5      30.10F                  
WESTERLY       MOCLDY    48  26  42 SW8       30.15R                  
$$
 
CTZALL-040500-
CONNECTICUT
  
CITY           SKY/WX    TMP DP  RH WIND       PRES   REMARKS
BRADLEY INTL   CLOUDY    43  19  38 S12       30.10R                  
HARTFORD       MOCLDY    45  21  38 S8        30.12R                  
BRIDGEPORT     NOT AVBL                                               
DANBURY        CLOUDY    45  18  34 SW10      30.11F                  
GROTON         MOCLDY    49  31  49 SW17G24   30.14S                  
NEW HAVEN      MOCLDY    50  29  44 SW9G16    30.13F                  
CHESTER        FAIR      45  28  53 SW8G14    30.13S                  
MERIDEN        MOCLDY    43  22  43 S7        30.13R                  
WILLIMANTIC    MOCLDY    40  28  62 S5        30.12R                  
OXFORD         CLOUDY    41  21  44 VRB6      30.12S                  
$$

MEZ002-015-021-024-NHZ003-005-008-011-012-014-VTZ005-008-040500-
NORTHERN NEW ENGLAND
  
CITY           SKY/WX    TMP DP  RH WIND       PRES   REMARKS
PORTLAND ME    CLOUDY    39  27  62 SW7       30.04F                  
BANGOR ME      PTCLDY    29  25  85 CALM      30.02S                  
CONCORD NH     MOCLDY    36  26  67 S7        30.04F WCI  30          
MANCHESTER NH  MOCLDY    42  23  46 S6        30.04F                  
NASHUA NH      MOCLDY    38  25  59 CALM      30.07S                  
PORTSMOUTH NH  CLOUDY    42  20  42 S3        30.04F                  
JAFFREY NH     MOCLDY    33  25  72 CALM      30.04S                  
KEENE NH       MOCLDY    33  27  78 CALM      30.06R                  
BURLINGTON VT  CLOUDY    42  22  44 S13G21    29.95F                  
MT. WASHINGTON PTCLDY    18   1  49 W52G62      N/A  WCI  -6          
$$

NYZ052-076-040500-
EASTERN NEW YORK
  
CITY           SKY/WX    TMP DP  RH WIND       PRES   REMARKS
ALBANY         PTCLDY    37  22  54 SE6       30.04F                  
NEW YORK CITY  CLOUDY    50  24  36 SW16      30.14F                  
$$
 
ANZALL-040500-
MARINE OBSERVATIONS
  
STATION/POSITION TIME  TEMP    WIND        PRES    VSBY  WAVE
                       AIR SEA DIR/SP/G                  HT/PER
                 (UTC) (F)     (DEG/KT/KT) (MB)    (MI)  (FT/S)
BOSTON BUOY      0340   45 50  210/ 17/ 21 1019.4F
BUZZARDS BAY     0300          240/ 24/ 26 1021.2F
NANTUCKET SOUND  0340      50  250/ 14/ 16   N/A
MASS BAY-STELLWA NOT AVBL
ISLE OF SHOALS   0300   45     230/ 19/ 21 1017.7S
S OF BLOCK IS    0326      56                N/A           6/ 6
$$

......................KEY.........................
  SKY/WX - SKY CONDITION/PRESENT WEATHER
  TMP    - TEMPERATURE IN FAHRENHEIT
  DWPT   - DEWPOINT IN FAHRENHEIT
  RH     - RELATIVE HUMIDITY IN PERCENT
  WIND   - DIRECTION AND SPEED IN MPH
  PRES   - MEAN SEA LEVEL PRESSURE IN INCHES OF HG
  WCI    - WIND CHILL INDEX
  VSB    - VISIBILITY IN MILES
  HX     - HEAT INDEX
  TC     - TEMPERATURE IN CELSIUS
  VRB    - VARIABLE WIND DIRECTION
  N/A    - NOT AVAILABLE
  
      

Other recent Regional Weather Roundups

Thu Dec 3, 10:04pm

Thu Dec 3, 9:04pm

Thu Dec 3, 8:04pm

Thu Dec 3, 7:04pm

Thu Dec 3, 6:04pm

Thu Dec 3, 5:04pm

Thu Dec 3, 4:05pm

Thu Dec 3, 3:04pm

Thu Dec 3, 2:04pm

Thu Dec 3, 1:04pm

Thu Dec 3, 12:04pm

Thu Dec 3, 11:04am

Thu Dec 3, 10:04am

Thu Dec 3, 9:04am

Thu Dec 3, 8:04am

Thu Dec 3, 7:04am

Thu Dec 3, 6:04am

Thu Dec 3, 5:04am

Thu Dec 3, 4:04am

Thu Dec 3, 3:04am

Thu Dec 3, 2:04am

Thu Dec 3, 1:04am

Thu Dec 3, 12:04am

Wed Dec 2, 11:04pm

Wed Dec 2, 10:04pm

Wed Dec 2, 9:04pm

Wed Dec 2, 8:04pm

Wed Dec 2, 7:04pm

Wed Dec 2, 6:05pm

Wed Dec 2, 5:04pm

Wed Dec 2, 4:05pm

Wed Dec 2, 3:05pm

Wed Dec 2, 2:04pm

Wed Dec 2, 1:04pm

Wed Dec 2, 12:04pm

Wed Dec 2, 11:04am

Wed Dec 2, 10:04am

Wed Dec 2, 9:05am

Wed Dec 2, 8:04am

Wed Dec 2, 7:04am

Wed Dec 2, 6:04am

Wed Dec 2, 5:04am

Wed Dec 2, 4:04am

Wed Dec 2, 3:04am

Wed Dec 2, 2:04am

Wed Dec 2, 1:04am

Wed Dec 2, 12:04am

Tue Dec 1, 11:04pm

Tue Dec 1, 10:04pm

Tue Dec 1, 9:04pm

Tue Dec 1, 8:04pm

Tue Dec 1, 7:04pm

Tue Dec 1, 6:05pm

Tue Dec 1, 5:04pm

Tue Dec 1, 4:05pm

Tue Dec 1, 3:04pm

Tue Dec 1, 2:04pm

Tue Dec 1, 12:04pm

Tue Dec 1, 11:04am

Tue Dec 1, 10:04am

Tue Dec 1, 9:04am

Tue Dec 1, 8:04am

Tue Dec 1, 7:04am

Tue Dec 1, 6:04am

Tue Dec 1, 5:05am

Tue Dec 1, 4:04am

Tue Dec 1, 3:04am

Tue Dec 1, 2:04am

Tue Dec 1, 1:04am

Tue Dec 1, 12:04am

Mon Nov 30, 11:04pm

Mon Nov 30, 10:04pm

Mon Nov 30, 9:04pm

Mon Nov 30, 8:04pm

Mon Nov 30, 7:05pm

Mon Nov 30, 6:04pm

Mon Nov 30, 5:05pm

Mon Nov 30, 4:04pm

Mon Nov 30, 3:05pm

Mon Nov 30, 2:05pm

Mon Nov 30, 1:04pm

Mon Nov 30, 12:05pm

Mon Nov 30, 11:04am

Mon Nov 30, 10:04am

Mon Nov 30, 9:04am

Mon Nov 30, 8:04am

Mon Nov 30, 7:05am

Mon Nov 30, 6:04am

Mon Nov 30, 5:05am

Mon Nov 30, 4:04am

Mon Nov 30, 3:04am

Mon Nov 30, 2:04am

Mon Nov 30, 1:04am

Mon Nov 30, 12:04am

Sun Nov 29, 11:04pm

Sun Nov 29, 10:04pm

Sun Nov 29, 9:04pm

Sun Nov 29, 8:04pm

Sun Nov 29, 7:04pm

Sun Nov 29, 6:04pm

Sun Nov 29, 5:04pm

Sun Nov 29, 4:05pm

Sun Nov 29, 3:04pm

Sun Nov 29, 2:04pm

Sun Nov 29, 1:04pm

Sun Nov 29, 12:04pm

Sun Nov 29, 11:04am

Sun Nov 29, 10:04am

Sun Nov 29, 9:04am

Sun Nov 29, 8:05am

Sun Nov 29, 7:04am

Sun Nov 29, 6:04am

Sun Nov 29, 5:04am

Sun Nov 29, 4:04am

Sun Nov 29, 3:04am

Sun Nov 29, 2:05am

Sun Nov 29, 1:04am

Sun Nov 29, 12:04am

Sat Nov 28, 11:04pm

Sat Nov 28, 10:04pm

Sat Nov 28, 9:04pm

Sat Nov 28, 8:04pm

Sat Nov 28, 7:04pm

Sat Nov 28, 6:04pm

Sat Nov 28, 5:04pm

Sat Nov 28, 4:04pm

Sat Nov 28, 3:04pm

Sat Nov 28, 2:04pm

Sat Nov 28, 1:04pm

Sat Nov 28, 12:04pm

Sat Nov 28, 11:04am

Sat Nov 28, 10:04am

Sat Nov 28, 9:04am

Sat Nov 28, 8:04am

Sat Nov 28, 7:04am

Sat Nov 28, 6:04am

Sat Nov 28, 5:04am

Sat Nov 28, 4:04am

Sat Nov 28, 3:05am

Sat Nov 28, 2:04am

Sat Nov 28, 1:04am

Sat Nov 28, 12:04am

Fri Nov 27, 11:05pm

Fri Nov 27, 10:04pm

Fri Nov 27, 9:04pm

Fri Nov 27, 8:04pm

Fri Nov 27, 7:04pm

Fri Nov 27, 6:04pm

Fri Nov 27, 5:04pm

Fri Nov 27, 4:05pm

Fri Nov 27, 3:05pm

Fri Nov 27, 2:05pm

Fri Nov 27, 1:04pm

Fri Nov 27, 12:04pm

Fri Nov 27, 11:04am

Fri Nov 27, 10:04am

Fri Nov 27, 9:05am

Fri Nov 27, 8:04am

Fri Nov 27, 7:04am

Fri Nov 27, 6:04am

Fri Nov 27, 5:04am

Fri Nov 27, 4:04am

Fri Nov 27, 3:04am

Fri Nov 27, 2:04am

Fri Nov 27, 1:04am

Fri Nov 27, 12:04am

Thu Nov 26, 11:04pm

Meta data:

ID: bcf2c169-5e8d-4b68-85fa-1aa12fb587e1
Link: https://api.weather.gov/products/bcf2c169-5e8d-4b68-85fa-1aa12fb587e1